Location: Theodore Roosevelt Nature Center
(40.5943°N, 73.5104°W)
Time: 15:51:38
(UTC-04:00)

Envisat - Visible Passes

Search period start: 16 October 2019 00:00
Search period end: 26 October 2019 00:00
Orbit: 764 x 766 km, 98.1° (Epoch: 16 October)

Date Brightness Start Highest point End Pass type
(mag) Time Alt. Az. Time Alt. Az. Time Alt. Az.
16 Oct 6.6 06:28:18 10° ENE 06:30:18 12° E 06:32:18 10° ESE visible
16 Oct 3.6 19:18:54 10° S 19:23:54 59° W 19:28:56 10° NNW visible
17 Oct 3.0 18:42:09 10° SSE 18:47:09 62° ENE 18:52:11 10° N visible
17 Oct 6.0 20:23:46 10° SW 20:26:35 15° W 20:29:25 10° NW visible
18 Oct 4.8 19:44:57 10° SSW 19:49:30 33° W 19:54:05 10° NNW visible
19 Oct 3.2 19:07:33 10° S 19:12:37 75° WSW 19:17:43 10° NNW visible
20 Oct 3.2 18:31:04 10° SE 18:35:56 49° ENE 18:40:50 10° N visible
20 Oct 5.7 20:11:39 10° SW 20:15:12 19° W 20:18:46 10° NW visible
21 Oct 6.1 06:41:23 10° NE 06:44:43 17° E 06:48:02 10° SE visible
21 Oct 4.3 19:33:24 10° S 19:38:11 42° W 19:43:00 10° NNW visible
22 Oct 3.0 18:56:17 10° SSE 19:01:22 86° ENE 19:06:28 10° NNW visible
22 Oct 6.3 20:40:33 10° W 20:41:01 10° W 20:41:28 10° W visible
23 Oct 5.3 19:59:47 10° SSW 20:03:51 24° W 20:07:56 10° NW visible
24 Oct 6.3 06:30:51 10° ENE 06:33:20 14° E 06:35:48 10° ESE visible
24 Oct 3.8 19:21:56 10° S 19:26:53 54° W 19:31:52 10° NNW visible
25 Oct 2.9 18:45:05 10° SSE 18:50:07 68° ENE 18:55:10 10° N visible
25 Oct 6.1 20:27:10 10° WSW 20:29:36 13° W 20:32:03 10° WNW visible
